UAL1492 KORD-KCMH

Flight info

Callsign UAL1492
Flight time 0h 52m
Altitude 37000
Route MOBLE ADIME SEWTO FWA BRYEN DUBLN1
Aircraft A319/M-SDE3FGHIRWY/LB1

Departure

Time 2026-05-04 19:27
Airport Chicago O'Hare International Airport (KORD)

Arrival

Time 2026-05-04 20:19
Airport John Glenn Columbus International Airport (KCMH)
Time Latitude Longitude Altitude Speed Heading
2026-05-04 18:26 41.97665 -87.90751 667 ft 0 kts 34°
2026-05-04 19:13 41.97664 -87.90752 669 ft 1 kts 34°
2026-05-04 19:13 41.97652 -87.90764 668 ft 3 kts 34°
2026-05-04 19:14 41.97636 -87.90778 666 ft 3 kts 25°
2026-05-04 19:14 41.97617 -87.90786 669 ft 3 kts 359°
2026-05-04 19:14 41.97598 -87.90781 669 ft 3 kts 327°
2026-05-04 19:14 41.97586 -87.90768 669 ft 1 kts 307°
2026-05-04 19:15 41.97584 -87.90763 669 ft 0 kts 307°
2026-05-04 19:17 41.97588 -87.90772 669 ft 2 kts 301°
2026-05-04 19:17 41.97588 -87.90793 669 ft 3 kts 265°
2026-05-04 19:17 41.97580 -87.90829 669 ft 6 kts 252°
2026-05-04 19:17 41.97562 -87.90895 669 ft 9 kts 249°
2026-05-04 19:18 41.97536 -87.90988 669 ft 12 kts 248°
2026-05-04 19:18 41.97477 -87.91047 667 ft 12 kts 157°
2026-05-04 19:18 41.97408 -87.90969 668 ft 14 kts 137°
2026-05-04 19:18 41.97332 -87.90873 669 ft 16 kts 136°
2026-05-04 19:19 41.97250 -87.90757 669 ft 18 kts 127°
2026-05-04 19:19 41.97215 -87.90593 669 ft 19 kts 95°
2026-05-04 19:19 41.97206 -87.90417 669 ft 19 kts 91°
2026-05-04 19:19 41.97203 -87.90248 669 ft 17 kts 90°
2026-05-04 19:20 41.97204 -87.90200 669 ft 0 kts 89°
2026-05-04 19:21 41.97204 -87.90197 669 ft 2 kts 89°
2026-05-04 19:21 41.97202 -87.90156 669 ft 7 kts 102°
2026-05-04 19:21 41.97147 -87.90128 669 ft 13 kts 181°
2026-05-04 19:22 41.97046 -87.90099 669 ft 18 kts 118°
2026-05-04 19:22 41.97041 -87.89911 669 ft 23 kts 91°
2026-05-04 19:22 41.97043 -87.89688 670 ft 25 kts 90°
2026-05-04 19:22 41.97043 -87.89449 669 ft 26 kts 90°
2026-05-04 19:23 41.97042 -87.89196 669 ft 28 kts 90°
2026-05-04 19:23 41.97042 -87.88934 668 ft 29 kts 89°
2026-05-04 19:23 41.97044 -87.88665 669 ft 29 kts 89°
2026-05-04 19:23 41.97046 -87.88385 669 ft 30 kts 90°
2026-05-04 19:24 41.97045 -87.88127 670 ft 11 kts 89°
2026-05-04 19:24 41.97045 -87.88113 670 ft 0 kts 89°
2026-05-04 19:25 41.97041 -87.88082 670 ft 8 kts 99°
2026-05-04 19:26 41.96978 -87.88025 672 ft 16 kts 172°
2026-05-04 19:26 41.96883 -87.88107 671 ft 19 kts 223°
2026-05-04 19:26 41.96716 -87.88313 670 ft 56 kts 222°
2026-05-04 19:26 41.96281 -87.88829 671 ft 109 kts 220°
2026-05-04 19:27 41.95591 -87.89644 692 ft 155 kts 223°
2026-05-04 19:27 41.94782 -87.90631 1287 ft 159 kts 225°
2026-05-04 19:27 41.93965 -87.91648 2029 ft 160 kts 225°
2026-05-04 19:27 41.93137 -87.92694 2683 ft 170 kts 225°
2026-05-04 19:28 41.92222 -87.93854 3046 ft 195 kts 225°
2026-05-04 19:28 41.91178 -87.95188 3584 ft 220 kts 226°
2026-05-04 19:28 41.90040 -87.96683 4199 ft 240 kts 226°
2026-05-04 19:28 41.88814 -87.98307 4798 ft 249 kts 226°
2026-05-04 19:29 41.87572 -87.99936 4954 ft 251 kts 226°
2026-05-04 19:29 41.86282 -88.01516 4992 ft 254 kts 217°
2026-05-04 19:29 41.84621 -88.02411 5150 ft 268 kts 191°
2026-05-04 19:29 41.82746 -88.02123 6059 ft 281 kts 163°
2026-05-04 19:30 41.81102 -88.00619 6968 ft 296 kts 133°
2026-05-04 19:30 41.80218 -87.98084 7863 ft 311 kts 101°
2026-05-04 19:30 41.80289 -87.95157 8746 ft 318 kts 81°
2026-05-04 19:30 41.80708 -87.92220 9616 ft 324 kts 77°
2026-05-04 19:31 41.81249 -87.89241 10293 ft 336 kts 75°
2026-05-04 19:31 41.81841 -87.86132 10596 ft 360 kts 75°
2026-05-04 19:31 41.82469 -87.82758 10850 ft 384 kts 76°
2026-05-04 19:31 41.83097 -87.79207 11363 ft 395 kts 77°
2026-05-04 19:32 41.83702 -87.75585 12042 ft 401 kts 77°
2026-05-04 19:32 41.84295 -87.71886 12728 ft 407 kts 78°
2026-05-04 19:32 41.84875 -87.68190 13414 ft 412 kts 78°
2026-05-04 19:32 41.85470 -87.64394 14059 ft 416 kts 78°
2026-05-04 19:33 41.86069 -87.60579 14727 ft 419 kts 77°
2026-05-04 19:33 41.86673 -87.56737 15403 ft 422 kts 77°
2026-05-04 19:33 41.87283 -87.52869 16081 ft 425 kts 77°
2026-05-04 19:33 41.87898 -87.48978 16759 ft 428 kts 77°
2026-05-04 19:34 41.88523 -87.45050 17433 ft 431 kts 77°
2026-05-04 19:34 41.89143 -87.41151 18077 ft 434 kts 77°
2026-05-04 19:34 41.89771 -87.37168 18663 ft 437 kts 77°
2026-05-04 19:34 41.90401 -87.33149 19246 ft 440 kts 77°
2026-05-04 19:35 41.91035 -87.29100 19843 ft 443 kts 77°
2026-05-04 19:35 41.91669 -87.25042 20398 ft 446 kts 77°
2026-05-04 19:35 41.92306 -87.20938 20944 ft 449 kts 77°
2026-05-04 19:35 41.92940 -87.16830 21475 ft 452 kts 77°
2026-05-04 19:36 41.93578 -87.12689 21983 ft 455 kts 77°
2026-05-04 19:36 41.94218 -87.08517 22479 ft 458 kts 78°
2026-05-04 19:36 41.94596 -87.04241 22963 ft 462 kts 88°
2026-05-04 19:36 41.94666 -86.99907 23418 ft 465 kts 89°
2026-05-04 19:37 41.94729 -86.95550 23836 ft 467 kts 89°
2026-05-04 19:37 41.94794 -86.91220 24242 ft 469 kts 89°
2026-05-04 19:37 41.94861 -86.86829 24658 ft 472 kts 89°
2026-05-04 19:37 41.94926 -86.82392 25072 ft 474 kts 89°
2026-05-04 19:38 41.94988 -86.77945 25482 ft 476 kts 89°
2026-05-04 19:38 41.95048 -86.73481 25896 ft 478 kts 88°
2026-05-04 19:38 41.95112 -86.68998 26295 ft 481 kts 88°
2026-05-04 19:38 41.95174 -86.64560 26685 ft 483 kts 88°
2026-05-04 19:39 41.95235 -86.60024 27074 ft 485 kts 88°
2026-05-04 19:39 41.95293 -86.55472 27455 ft 487 kts 88°
2026-05-04 19:39 41.95347 -86.50912 27826 ft 489 kts 89°
2026-05-04 19:39 41.95398 -86.46324 28195 ft 491 kts 88°
2026-05-04 19:40 41.95447 -86.41711 28556 ft 494 kts 88°
2026-05-04 19:40 41.95491 -86.37140 28899 ft 496 kts 89°
2026-05-04 19:40 41.95531 -86.32495 29260 ft 497 kts 89°
2026-05-04 19:40 41.95570 -86.27848 29763 ft 496 kts 89°
2026-05-04 19:41 41.95366 -86.23219 30194 ft 495 kts 97°
2026-05-04 19:41 41.94689 -86.18692 30609 ft 494 kts 106°
2026-05-04 19:41 41.93572 -86.14359 31038 ft 492 kts 113°
2026-05-04 19:41 41.92309 -86.10076 31470 ft 491 kts 113°
2026-05-04 19:42 41.91048 -86.05812 31900 ft 490 kts 113°
2026-05-04 19:42 41.89804 -86.01608 32331 ft 490 kts 113°
2026-05-04 19:42 41.88551 -85.97362 32779 ft 489 kts 112°
2026-05-04 19:42 41.87296 -85.93117 33193 ft 488 kts 113°
2026-05-04 19:43 41.86042 -85.88880 33638 ft 488 kts 113°
2026-05-04 19:43 41.85211 -85.86073 33895 ft 487 kts 113°
2026-05-04 19:43 41.83957 -85.81844 34266 ft 487 kts 113°
2026-05-04 19:43 41.82700 -85.77614 34656 ft 487 kts 113°
2026-05-04 19:44 41.81449 -85.73413 35015 ft 487 kts 113°
2026-05-04 19:44 41.80191 -85.69197 35378 ft 486 kts 113°
2026-05-04 19:44 41.78926 -85.64965 35756 ft 486 kts 113°
2026-05-04 19:44 41.77664 -85.60766 36100 ft 486 kts 115°
2026-05-04 19:45 41.76056 -85.56801 36424 ft 482 kts 127°
2026-05-04 19:45 41.73948 -85.53407 36656 ft 478 kts 139°
2026-05-04 19:45 41.71318 -85.50718 36704 ft 471 kts 154°
2026-05-04 19:46 41.65422 -85.47310 36540 ft 461 kts 167°
2026-05-04 19:46 41.62362 -85.45993 36275 ft 462 kts 167°
2026-05-04 19:46 41.59305 -85.44648 36014 ft 462 kts 166°
2026-05-04 19:46 41.56241 -85.43299 35756 ft 462 kts 166°
2026-05-04 19:47 41.53184 -85.41968 35507 ft 462 kts 166°
2026-05-04 19:47 41.50111 -85.40648 35249 ft 462 kts 167°
2026-05-04 19:47 41.47073 -85.39361 35000 ft 463 kts 167°
2026-05-04 19:47 41.43964 -85.38055 34753 ft 463 kts 167°
2026-05-04 19:48 41.40923 -85.36784 34510 ft 463 kts 167°
2026-05-04 19:48 41.37855 -85.35500 34266 ft 463 kts 167°
2026-05-04 19:48 41.34774 -85.34204 34020 ft 463 kts 167°
2026-05-04 19:48 41.31707 -85.32913 33772 ft 463 kts 167°
2026-05-04 19:49 41.28616 -85.31617 33514 ft 463 kts 167°
2026-05-04 19:49 41.25537 -85.30335 33249 ft 463 kts 167°
2026-05-04 19:49 41.22485 -85.29063 32970 ft 464 kts 166°
2026-05-04 19:49 41.19402 -85.27772 32697 ft 465 kts 166°
2026-05-04 19:50 41.16309 -85.26476 32430 ft 465 kts 166°
2026-05-04 19:50 41.13207 -85.25179 32158 ft 466 kts 166°
2026-05-04 19:50 41.10146 -85.23901 31890 ft 467 kts 166°
2026-05-04 19:50 41.07035 -85.22607 31631 ft 467 kts 166°
2026-05-04 19:51 41.03978 -85.21081 31381 ft 472 kts 157°
2026-05-04 19:51 41.01131 -85.18872 31125 ft 477 kts 147°
2026-05-04 19:51 40.98600 -85.16002 30875 ft 481 kts 136°
2026-05-04 19:51 40.96480 -85.12551 30622 ft 485 kts 125°
2026-05-04 19:52 40.94863 -85.08692 30379 ft 487 kts 114°
2026-05-04 19:52 40.93587 -85.04534 29717 ft 487 kts 112°
2026-05-04 19:52 40.92311 -85.00343 28244 ft 493 kts 112°
2026-05-04 19:52 40.91013 -84.96121 26883 ft 495 kts 113°
2026-05-04 19:53 40.89713 -84.91905 25546 ft 495 kts 113°
2026-05-04 19:53 40.88420 -84.87710 24719 ft 485 kts 113°
2026-05-04 19:53 40.87161 -84.83629 23895 ft 475 kts 113°
2026-05-04 19:53 40.85924 -84.79614 23037 ft 467 kts 114°
2026-05-04 19:54 40.84715 -84.75693 22358 ft 466 kts 114°
2026-05-04 19:54 40.83482 -84.71703 22150 ft 469 kts 114°
2026-05-04 19:54 40.82248 -84.67705 21811 ft 469 kts 114°
2026-05-04 19:54 40.81021 -84.63739 21477 ft 467 kts 114°
2026-05-04 19:55 40.79806 -84.59817 21136 ft 465 kts 114°
2026-05-04 19:55 40.78576 -84.55866 20797 ft 463 kts 114°
2026-05-04 19:55 40.77351 -84.51935 20450 ft 462 kts 114°
2026-05-04 19:55 40.76130 -84.48007 20111 ft 460 kts 114°
2026-05-04 19:56 40.74919 -84.44118 19770 ft 458 kts 114°
2026-05-04 19:56 40.73722 -84.40271 19436 ft 457 kts 114°
2026-05-04 19:56 40.72519 -84.36412 19103 ft 455 kts 114°
2026-05-04 19:56 40.71309 -84.32547 18795 ft 454 kts 114°
2026-05-04 19:57 40.70100 -84.28704 18458 ft 453 kts 114°
2026-05-04 19:57 40.68888 -84.24865 18130 ft 452 kts 114°
2026-05-04 19:57 40.67681 -84.21034 17767 ft 451 kts 114°
2026-05-04 19:57 40.66493 -84.17264 17446 ft 449 kts 115°
2026-05-04 19:58 40.65302 -84.13487 17115 ft 447 kts 115°
2026-05-04 19:58 40.64099 -84.09684 16794 ft 445 kts 115°
2026-05-04 19:58 40.62914 -84.05942 16606 ft 444 kts 115°
2026-05-04 19:58 40.61719 -84.02175 16298 ft 442 kts 115°
2026-05-04 19:59 40.60533 -83.98437 15966 ft 440 kts 115°
2026-05-04 19:59 40.59358 -83.94729 15643 ft 438 kts 115°
2026-05-04 19:59 40.58192 -83.91066 15316 ft 437 kts 115°
2026-05-04 19:59 40.57019 -83.87391 15000 ft 435 kts 115°
2026-05-04 20:00 40.55848 -83.83728 14704 ft 433 kts 115°
2026-05-04 20:00 40.54682 -83.80075 14386 ft 431 kts 115°
2026-05-04 20:00 40.53521 -83.76444 14069 ft 429 kts 115°
2026-05-04 20:00 40.52364 -83.72833 13943 ft 428 kts 115°
2026-05-04 20:01 40.51205 -83.69212 13974 ft 429 kts 115°
2026-05-04 20:01 40.50064 -83.65646 13977 ft 429 kts 116°
2026-05-04 20:01 40.48907 -83.62048 13309 ft 429 kts 116°
2026-05-04 20:01 40.47726 -83.58390 12276 ft 434 kts 116°
2026-05-04 20:02 40.46564 -83.54798 11982 ft 421 kts 116°
2026-05-04 20:02 40.45423 -83.51271 11790 ft 417 kts 116°
2026-05-04 20:02 40.44180 -83.47857 11539 ft 412 kts 124°
2026-05-04 20:02 40.42579 -83.44770 11233 ft 406 kts 130°
2026-05-04 20:03 40.40924 -83.41811 10991 ft 393 kts 130°
2026-05-04 20:03 40.39355 -83.38989 10862 ft 374 kts 130°
2026-05-04 20:03 40.37868 -83.36320 10742 ft 358 kts 131°
2026-05-04 20:03 40.36427 -83.33738 10612 ft 343 kts 131°
2026-05-04 20:04 40.35040 -83.31260 10499 ft 331 kts 131°
2026-05-04 20:04 40.33698 -83.28865 10313 ft 322 kts 132°
2026-05-04 20:04 40.32376 -83.26515 10132 ft 318 kts 132°
2026-05-04 20:04 40.30947 -83.24332 9994 ft 310 kts 143°
2026-05-04 20:05 40.29312 -83.22576 9803 ft 306 kts 149°
2026-05-04 20:05 40.27640 -83.20850 9568 ft 305 kts 149°
2026-05-04 20:05 40.25976 -83.19132 9348 ft 304 kts 148°
2026-05-04 20:05 40.24324 -83.17421 9199 ft 298 kts 148°
2026-05-04 20:06 40.22711 -83.15745 8975 ft 296 kts 149°
2026-05-04 20:06 40.21108 -83.14059 8723 ft 294 kts 146°
2026-05-04 20:06 40.19741 -83.12081 8517 ft 300 kts 131°
2026-05-04 20:06 40.18601 -83.09771 8311 ft 301 kts 128°
2026-05-04 20:07 40.17477 -83.07476 8129 ft 300 kts 128°
2026-05-04 20:07 40.16339 -83.05184 7919 ft 299 kts 129°
2026-05-04 20:07 40.15189 -83.02959 7707 ft 297 kts 130°
2026-05-04 20:07 40.13996 -83.00714 7486 ft 296 kts 130°
2026-05-04 20:08 40.12831 -82.98535 7294 ft 296 kts 130°
2026-05-04 20:08 40.11655 -82.96330 7089 ft 295 kts 130°
2026-05-04 20:08 40.10472 -82.94124 6732 ft 297 kts 131°
2026-05-04 20:08 40.09435 -82.91729 6371 ft 305 kts 116°
2026-05-04 20:09 40.08908 -82.89081 6217 ft 302 kts 98°
2026-05-04 20:09 40.08745 -82.86367 6077 ft 301 kts 96°
2026-05-04 20:09 40.08603 -82.83650 5996 ft 294 kts 96°
2026-05-04 20:09 40.08475 -82.81051 6002 ft 279 kts 95°
2026-05-04 20:10 40.08358 -82.78608 6001 ft 268 kts 96°
2026-05-04 20:10 40.08241 -82.76192 6002 ft 265 kts 96°
2026-05-04 20:10 40.08122 -82.73791 5996 ft 265 kts 96°
2026-05-04 20:10 40.08001 -82.71382 5999 ft 265 kts 96°
2026-05-04 20:11 40.07881 -82.68985 5998 ft 264 kts 96°
2026-05-04 20:11 40.07761 -82.66602 5989 ft 258 kts 96°
2026-05-04 20:11 40.07638 -82.64286 5803 ft 252 kts 99°
2026-05-04 20:11 40.07127 -82.62185 5545 ft 241 kts 127°
2026-05-04 20:12 40.06061 -82.60607 5249 ft 226 kts 152°
2026-05-04 20:12 40.04689 -82.59764 4950 ft 211 kts 175°
2026-05-04 20:12 40.03280 -82.59648 4623 ft 198 kts 195°
2026-05-04 20:12 40.01996 -82.60148 4301 ft 189 kts 212°
2026-05-04 20:13 40.00950 -82.61144 4022 ft 182 kts 230°
2026-05-04 20:13 40.00178 -82.62383 4019 ft 172 kts 234°
2026-05-04 20:13 39.99456 -82.63565 3998 ft 167 kts 233°
2026-05-04 20:13 39.98734 -82.64743 3996 ft 165 kts 234°
2026-05-04 20:14 39.98190 -82.66044 3994 ft 164 kts 251°
2026-05-04 20:14 39.98077 -82.67532 3802 ft 166 kts 268°
2026-05-04 20:14 39.98128 -82.69017 3582 ft 158 kts 268°
2026-05-04 20:14 39.98195 -82.70408 3382 ft 150 kts 269°
2026-05-04 20:15 39.98268 -82.71754 3185 ft 148 kts 269°
2026-05-04 20:15 39.98343 -82.73097 2997 ft 149 kts 269°
2026-05-04 20:15 39.98419 -82.74382 2799 ft 132 kts 266°
2026-05-04 20:15 39.98484 -82.75489 2642 ft 118 kts 266°
2026-05-04 20:16 39.98543 -82.76530 2489 ft 111 kts 266°
2026-05-04 20:16 39.98600 -82.77524 2349 ft 109 kts 265°
2026-05-04 20:16 39.98655 -82.78508 2210 ft 110 kts 265°
2026-05-04 20:16 39.98712 -82.79498 2071 ft 108 kts 265°
2026-05-04 20:17 39.98768 -82.80478 1920 ft 108 kts 266°
2026-05-04 20:17 39.98824 -82.81452 1776 ft 110 kts 266°
2026-05-04 20:17 39.98882 -82.82455 1618 ft 112 kts 267°
2026-05-04 20:17 39.98939 -82.83478 1480 ft 113 kts 266°
2026-05-04 20:18 39.98995 -82.84510 1311 ft 114 kts 268°
2026-05-04 20:18 39.99060 -82.85532 1128 ft 114 kts 268°
2026-05-04 20:18 39.99119 -82.86559 986 ft 113 kts 268°
2026-05-04 20:18 39.99174 -82.87552 847 ft 109 kts 268°
2026-05-04 20:19 39.99220 -82.88442 822 ft 84 kts 274°
2026-05-04 20:19 39.99248 -82.88971 819 ft 34 kts 274°
2026-05-04 20:19 39.99310 -82.89114 821 ft 19 kts 352°
2026-05-04 20:19 39.99429 -82.89083 819 ft 18 kts 48°
2026-05-04 20:20 39.99431 -82.88931 820 ft 15 kts 94°
2026-05-04 20:20 39.99424 -82.88789 815 ft 17 kts 94°
2026-05-04 20:20 39.99416 -82.88622 818 ft 19 kts 94°
2026-05-04 20:20 39.99405 -82.88448 820 ft 19 kts 94°
2026-05-04 20:21 39.99397 -82.88287 820 ft 18 kts 93°
2026-05-04 20:21 39.99388 -82.88120 822 ft 18 kts 95°
2026-05-04 20:21 39.99374 -82.87818 824 ft 11 kts 71°
2026-05-04 20:22 39.99443 -82.87788 825 ft 11 kts
2026-05-04 20:22 39.99483 -82.87863 825 ft 12 kts 276°
2026-05-04 20:22 39.99537 -82.87920 824 ft 15 kts 11°
2026-05-04 20:22 39.99655 -82.87910 823 ft 19 kts
2026-05-04 20:23 39.99797 -82.87901 823 ft 22 kts
2026-05-04 20:23 39.99866 -82.87956 822 ft 8 kts 263°
2026-05-04 20:23 39.99868 -82.88006 822 ft 0 kts 271°